Regional Weather Roundup
Issued by NWS

Home | Current Version | Previous Version | Text Only | Print | Product List | Glossary On
Versions: 1 2 3 4 5 6 7 8 9 10 11 12 13 14 15 16 17 18 19 20 21 22 23 24 25 26 27 28 29 30 31 32 33 34 35 36 37 38 39 40 41 42 43 44 45 46 47 48 49 50
000
ASHW40 PHFO 130712
RWRHI

WEATHER ROUNDUP FOR HAWAII
NATIONAL WEATHER SERVICE HONOLULU HI
900 PM HST FRI FEB 12 2016

THIS IS AN AUTOMATED REPORT THAT HAS NOT BEEN QUALITY CONTROLLED.

NOTE..."FAIR" INDICATES FEW OR NO CLOUDS BELOW 12,000 FEET WITH NO
SIGNIFICANT WEATHER AND/OR OBSTRUCTIONS TO VISIBILITY.

* - THESE SITES REPORT LIMITED FIELDS

HIZ001>004-130800-
KAUAI-NIIHAU-

CITY           SKY/WX    TMP DP  RH WIND       PRES   REMARKS
LIHUE APT      CLEAR     70  63  78 W7        30.09R
PORT ALLEN*      N/A     70 N/A N/A NE8         N/A
POIPU*           N/A     66 N/A N/A N3          N/A
PRINCEVILLE*     N/A     68 N/A N/A S3          N/A
KOKOLE POINT*  NOT AVBL
MOLOAA DAIRY*    N/A     66  64  94 W1          N/A
WAIMEA HTS*    NOT AVBL
PUU OPAE*      NOT AVBL
PUU LUA*       NOT AVBL
MAKAHA RIDGE*  NOT AVBL
$$

HIZ005>011-130800-
OAHU-

CITY           SKY/WX    TMP DP  RH WIND       PRES   REMARKS
HONOLULU       PTCLDY    76  65  68 N5        30.08R
KALAELOA       PTCLDY    72  65  78 SE3       30.09R
KANEOHE MCB    MOCLDY    75  68  78 SE3       30.06R
WHEELER FIELD  FAIR      67  63  86 W5        30.09R
BELLOWS*       NOT AVBL
KAHUKU*        NOT AVBL
WHEELER*       NOT AVBL
WAIANAE HARBOR NOT AVBL
DILLINGHAM*      N/A     72  64  78 MISG        N/A
KAHUKU TRN*      N/A     68  63  83 CALM        N/A
KAWAILOA*        N/A     68  63  83 E3          N/A
KII*             N/A     72  64  78 SE3G9       N/A
MAKUA RANGE*     N/A     82  77  83 SE5         N/A  HX  91
OAHU FOREST NW NOT AVBL
SCHOFIELD BRK*   N/A     70  66  88 MISG        N/A
SCHOFIELD S*   NOT AVBL
WAIANAE VLY*   NOT AVBL
KUAOKALA*      NOT AVBL
HONOULIUULI*   NOT AVBL
MOKUOLOE IS*   NOT AVBL
PALEHUA*       NOT AVBL
WAIAWA PHB*    NOT AVBL
$$

HIZ012>013-130800-
MOLOKAI-

CITY           SKY/WX    TMP DP  RH WIND       PRES   REMARKS
MOLOKAI AIRPT  CLEAR     70  66  87 CALM      30.09R
KALAUPAPA      NOT AVBL
MAKAPULAPAI*   NOT AVBL
MOLOKAI 1*     NOT AVBL
PUU ALII*      NOT AVBL
$$

HIZ016-130800-
KAHOOLAWE-

CITY           SKY/WX    TMP DP  RH WIND       PRES   REMARKS
KAHOOLAWE*     NOT AVBL
HAKIOAWA*      NOT AVBL
HONOKANAIA*      N/A     76  66  71 W8G14     29.99R
KANELOA*         N/A     73  64  73 NE12G23   30.12R
KEALIALALO*    NOT AVBL
LUA MAKIKA*    NOT AVBL
$$

HIZ014>015-130800-
LANAI-

CITY           SKY/WX    TMP DP  RH WIND       PRES   REMARKS
LANAI CITY     FAIR      68  65  90 N10       30.12R
LANAI 1*       NOT AVBL
$$

HIZ017>028-130800-
MAUI-

CITY           SKY/WX    TMP DP  RH WIND       PRES   REMARKS
KAHULUI        PTCLDY    73  66  78 SE6       30.07R
KAPALUA-W MAUI NOT AVBL
HANA AIRPORT   NOT AVBL
HANA*            N/A     75 N/A N/A E7G15       N/A
HALEAKALA SUMM   N/A     43  12  28 E35         N/A
MAALAEA BAY*   NOT AVBL
HALEAKALA*     NOT AVBL
KAUPO GAP*     NOT AVBL
KULA 1*          N/A     46  45  93 E3          N/A
$$

HIZ023>026-130800-
BIG ISLAND OF HAWAII COAST AND LOWER SLOPES-

CITY           SKY/WX    TMP DP  RH WIND       PRES   REMARKS
KAILUA KONA    NOT AVBL
HILO           CLOUDY    74  68  81 S3        30.08R
HONOKAA*         N/A     63 N/A N/A VRB1        N/A
KAWAIHAE MWT*    N/A     77 N/A N/A E6          N/A
KAWAIHAE*      NOT AVBL
SOUTH POINT*     N/A     70 N/A N/A NE17G29     N/A
UPOLU AIRPORT*   N/A    N/A N/A N/A SE9         N/A
KAMUELA*       NOT AVBL
HAKALAU*         N/A    N/A N/A N/A S8          N/A
KALOKO-HONOKO* NOT AVBL
PALI 2*          N/A     63  57  82 NE12        N/A
KEALAKOMO*       N/A     75  66  73 NE10G17     N/A
KAUPULEHU*     NOT AVBL
KAPAPALA*        N/A     60  58  94 N3          N/A
LOWER KAHUKU*  NOT AVBL
PUHE CS*       NOT AVBL
PUHO CS*       NOT AVBL
PTA KEAMUKU*     N/A     54  48  82 CALM        N/A
WAIKOLOA*      NOT AVBL
$$

HIZ027>028-130800-
BIG ISLAND OF HAWAII INTERIOR AND SUMMMITS-

CITY           SKY/WX    TMP DP  RH WIND       PRES   REMARKS
BRADSHAW FIELD CLOUDY    50  43  77 W5        30.34R
MK VISITOR CEN   N/A     50  -4  10 E14         N/A
MAUNA KEA*       N/A     37 -17   9 SE28        N/A  WCI  25
MAUNA LOA*     NOT AVBL
MAUNA LOA 1*   NOT AVBL
PTA KIPUKA*      N/A     66  64  94 SE3         N/A
PTA RANGE 17*    N/A     50  46  87 NW3G12      N/A
PTA WEST*        N/A     70  66  88 SE9         N/A
NENE CABIN*    NOT AVBL
AHUMOA*        NOT AVBL
PTA PORTABLE*  NOT AVBL
PUU MALI*        N/A     46  45  93 SW9         N/A
$$

HIC003-130800-
NORTHWEST ISLANDS-

CITY           SKY/WX    TMP DP  RH WIND       PRES   REMARKS
MIDWAY ISLAND  CLOUDY    63  52  67 W15       29.89R
MIDWAY NOS*    NOT AVBL
FRENCH FRIGATE NOT AVBL
$$

PHZ110>124-180-130800-
BUOY REPORTS

STATION/POSITION TIME  TEMP    WIND        PRES    WAVE   SWELL
                       AIR SEA DIR/SP/G            HT/PER HT/DIR
                 (UTC) (F)     (DEG/KT/KT) (MB)    (FT/S) (FT/D)
BUOY 51001       0600   75 75  150/ 12/ 16 1017.1R
BUOY 51101       0650   75 76  150/ 12/ 14 1017.4R   6/12   5/320
BUOY 51100       NOT AVBL
BUOY 51002       0650   77 78   80/ 16/ 19 1015.8R   8/15   7/320
BUOY 51003       0650   77 78   80/ 16/ 17 1017.0R   8/14   8/330
BUOY 51004       0650   77 77   70/ 19/ 23 1016.4R  12/15  10/330
BARBERS PT BUOY  NOT AVBL
WAIMEA BAY BUOY  0604      77                N/A     7/13   5/330
KAILUA BAY BUOY  0611      77                N/A     7/13   5/350
LANAI BUOY       NOT AVBL
BARBERS PT 2     0703      78                N/A     5/13   3/300
PAUWELA MAUI     0607      76                N/A     9/13   7/330
HILO             0612      77                N/A     9/14   7/340
KANEOHE BAY BUOY 0606      76                N/A     6/12   5/360
HANALEI KAUAI    0701      77                N/A     8/12   7/320
KAHULUI HARBOR   NOT AVBL
HONOLULU HARBOR  0600   76 77  330/  4/  5 1018.6R
KILO NALU        NOT AVBL
HILO HARBOR      0600   74 76  220/  4/  5 1017.7R
MOKUOLOE         0600   75 78   90/  7/ 10 1017.9R
NAWILIWILI       0600   70 78  260/  6/  7 1017.9
WHOTS BUOY       NOT AVBL
BUOY 51028       NOT AVBL
$$

......................KEY........................................
  SKY/WX - SKY CONDITIONS/PRESENT WEATHER
  TMP    - TEMPERATURE IN FAHRENHEIT
  DWPT   - DEWPOINT IN FAHRENHEIT
  RH     - RELATIVE HUMIDITY IN PERCENT
  WIND   - DIRECTION AND SPEED /MPH FOR ISLANDS...KTS FOR BUOYS/
  PRES   - MEAN SEA LEVEL PRESSURE IN INCHES OF HG
  VSB    - VISIBILITY IN MILES
  HX     - HEAT INDEX
  WCI    - WIND CHILL INDEX
  VRB    - VARIABLE WIND DIRECTION
  N/A    - NOT AVAILABLE



USA.gov is the U.S. government's official web portal to all federal, state and local government web resources and services.